Regional Weather Roundup
Issued by NWS Glasgow, MT

Home | Current Version | Previous Version | Text Only | Print | Product List | Glossary On
Versions: 1 2 3 4 5 6 7 8 9 10 11 12 13 14 15 16 17 18 19 20 21 22 23 24 25 26 27
000
ASUS45 KGGW 240015
RWRGGW
HOURLY WEATHER ROUNDUP FOR NORTHEAST MONTANA
NATIONAL WEATHER SERVICE GLASGOW MONTANA
600 PM MDT WED APR 23 2014

NOTE: "FAIR" INDICATES FEW OR NO CLOUDS BELOW 12,000 FEET WITH NO
SIGNIFICANT WEATHER AND/OR OBSTRUCTIONS TO VISISBILITY.

NORTHEAST MONTANA


CITY           SKY/WX    TMP DP  RH WIND       PRES   REMARKS
GLASGOW        PTSUNNY   59  20  22 W26G36    29.55S
6HR MIN TEMP:  51; 6HR MAX TEMP:  60;

PLENTYWOOD       N/A     48  41  76 NW12        N/A
WOLF POINT     PTSUNNY   60  19  20 W23G33    29.57R
JORDAN           N/A     58  15  18 W24G35    29.62R
WINNETT          N/A     55  15  20 SW18G26     N/A
SIDNEY         MOSUNNY   59  25  27 W20G28    29.60R
GLENDIVE       MOSUNNY   57  23  26 W16G26    29.64R

FORT PECK REPORTS


CITY           SKY/WX    TMP DP  RH WIND       PRES   REMARKS
FORT PECK        N/A     58  21  24 W33G44      N/A
THE PINES        N/A     60  15  17 W13G26      N/A

SOUTHEAST MONTANA


CITY           SKY/WX    TMP DP  RH WIND       PRES   REMARKS
BILLINGS       MOSUNNY   53  16  23 W30G43    29.73R
MILES CITY     MOSUNNY   58  20  22 W18G28    29.66S
BAKER          MOSUNNY   54  28  36 W21G31    29.68R
LIVINGSTON     MOSUNNY   46  19  34 SW33G44   29.78R

CENTRAL MONTANA


CITY           SKY/WX    TMP DP  RH WIND       PRES   REMARKS
HAVRE          PTSUNNY   55  19  24 W28G36    29.59R
LEWISTOWN      PTSUNNY   49  18  29 W28G37    29.70R
GREAT FALLS    PTSUNNY   49  26  41 SW29G36   29.70R
CUT BANK       MOSUNNY   47  22  37 W31G39    29.62R
HELENA         PTSUNNY   49  17  28 W15G29    29.76R
BUTTE          MOSUNNY   41  21  44 SW17G23   29.82S
BOZEMAN        PTSUNNY   46  23  40 SW26      29.81S

WESTERN MONTANA


CITY           SKY/WX    TMP DP  RH WIND       PRES   REMARKS
MISSOULA       CLOUDY    44  32  62 W12       29.85R
KALISPELL      NOT AVBL

NORTH DAKOTA


CITY           SKY/WX    TMP DP  RH WIND       PRES   REMARKS
WILLISTON      CLOUDY    53  40  61 NW10      29.57S
DICKINSON      MOSUNNY   55  27  34 W23G29    29.61R
MINOT          CLOUDY    45  42  89 SE14      29.59R
BISMARCK       CLOUDY    53  40  61 W20G29    29.63R

SOUTHERN SASKATCHEWAN


CITY           SKY/WX    TMP DP  RH WIND       PRES   REMARKS
REGINA         LGT RAIN  45  43  93 SW10G21   29.51R FOG
ESTEVAN        LGT RAIN  45  45 100 W14       29.54R
SWIFT CURRENT  LGT RAIN  45  41  87 SW21G28   29.49R




USA.gov is the U.S. government's official web portal to all federal, state and local government web resources and services.